User: anonymous   Login
Location: Fundy National Park
(45.6138°N, 65.0316°W)
Time: 02:24:48
(UTC-04:00)
Language:

Tiangong - Orbit

View from above orbital plane
View from above orbital plane
View from above satellite
View from above satellite

Ground track
Ground track

The orbit data is extracted from the following two-line orbital elements,

1 48274U 21035A   21334.78825231  .00011194  00000-0  12947-3 0  9997
2 48274  41.4712 347.4474 0002878 116.2581 237.5069 15.61752819 33742
Epoch (UTC): 30 November 2021 18:55:05
Eccentricity: 0.0002878
inclination: 41.4712°
perigee height: 380 km
apogee height: 384 km
right ascension of ascending node: 347.4474°
argument of perigee: 116.2581°
revolutions per day: 15.61752819
mean anomaly at epoch: 237.5069°
orbit number at epoch: 3374

The dashed part of the orbit path shows where the satellite is in the earth's shadow,  

DLR